| time (UTC) | temp C | wind direction | speed KPH | gust KPH | rain 1hr cm | rain 24hr cm | rain mn cm | humidity % | barometer mb |
| 20260902233927 | 32 | 207 | 0.0 | 1.6 | 0.00 | 0.00 | 0.00 | 60 | 1015.2 |
| 20260902232921 | 32 | 207 | 0.0 | 0.0 | 0.00 | 0.00 | 0.00 | 60 | 1015.2 |
| 20260902232455 | 32 | 207 | 0.0 | 3.2 | 0.00 | 0.00 | 0.00 | 59 | 1015.1 |
| 20260902231928 | 32 | 207 | 1.6 | 6.4 | 0.00 | 0.00 | 0.00 | 59 | 1015.2 |
| 20260902231502 | 32 | 198 | 3.2 | 6.4 | 0.00 | 0.00 | 0.00 | 58 | 1015.4 |
| 20260902230934 | 32 | 239 | 1.6 | 6.4 | 0.00 | 0.00 | 0.00 | 57 | 1015.3 |
| 20260902230000 | 33 | 247 | 3.2 | 6.4 | 0.00 | 0.00 | 0.00 | 56 | 1015.4 |
| 20260902225433 | 33 | 212 | 3.2 | 6.4 | 0.00 | 0.00 | 0.00 | 56 | 1015.4 |
| 20260902223945 | 33 | 231 | 3.2 | 8.0 | 0.00 | 0.00 | 0.00 | 54 | 1015.3 |
| 20260902223418 | 33 | 231 | 4.8 | 12.9 | 0.00 | 0.00 | 0.00 | 54 | 1015.3 |
| 20260902222952 | 33 | 243 | 3.2 | 12.9 | 0.00 | 0.00 | 0.00 | 53 | 1015.5 |
| 20260902222424 | 33 | 217 | 4.8 | 9.7 | 0.00 | 0.00 | 0.00 | 52 | 1015.4 |
| 20260902215958 | 34 | 219 | 8.0 | 11.3 | 0.00 | 0.00 | 0.00 | 51 | 1015.5 |
| 20260902215414 | 34 | 227 | 3.2 | 11.3 | 0.00 | 0.00 | 0.00 | 51 | 1015.5 |
| 20260902214504 | 35 | 220 | 4.8 | 6.4 | 0.00 | 0.00 | 0.00 | 50 | 1015.5 |
| 20260902212928 | 34 | 202 | 8.0 | 11.3 | 0.00 | 0.00 | 0.00 | 51 | 1015.5 |
| 20260902212502 | 35 | 228 | 8.0 | 11.3 | 0.00 | 0.00 | 0.00 | 50 | 1015.7 |
| 20260902211935 | 35 | 253 | 1.6 | 14.5 | 0.00 | 0.00 | 0.00 | 51 | 1015.6 |
| 20260902210931 | 35 | 260 | 4.8 | 14.5 | 0.00 | 0.00 | 0.00 | 52 | 1015.5 |
| 20260902210505 | 35 | 257 | 4.8 | 14.5 | 0.00 | 0.00 | 0.00 | 49 | 1015.7 |
| 20260902205935 | 35 | 234 | 9.7 | 11.3 | 0.00 | 0.00 | 0.00 | 49 | 1015.7 |
| 20260902205408 | 35 | 270 | 6.4 | 11.3 | 0.00 | 0.00 | 0.00 | 50 | 1015.7 |
| 20260902204941 | 34 | 239 | 4.8 | 11.3 | 0.00 | 0.00 | 0.00 | 51 | 1015.9 |
| 20260902204413 | 34 | 243 | 6.4 | 11.3 | 0.00 | 0.00 | 0.00 | 49 | 1015.9 |
| 20260902203947 | 35 | 185 | 8.0 | 12.9 | 0.00 | 0.00 | 0.00 | 51 | 1015.9 |
| 20260902201911 | 35 | 224 | 4.8 | 16.1 | 0.00 | 0.00 | 0.00 | 49 | 1015.9 |
| 20260902201445 | 35 | 239 | 9.7 | 16.1 | 0.00 | 0.00 | 0.00 | 50 | 1015.9 |
| 20260902200918 | 34 | 226 | 4.8 | 9.7 | 0.00 | 0.00 | 0.00 | 51 | 1015.9 |
| 20260902200452 | 35 | 227 | 4.8 | 12.9 | 0.00 | 0.00 | 0.00 | 49 | 1015.9 |
| 20260902195002 | 35 | 226 | 9.7 | 14.5 | 0.00 | 0.00 | 0.00 | 48 | 1016.2 |
| 20260902193951 | 35 | 243 | 4.8 | 12.9 | 0.00 | 0.00 | 0.00 | 49 | 1016.3 |
| 20260902193423 | 35 | 203 | 6.4 | 11.3 | 0.00 | 0.00 | 0.00 | 49 | 1016.4 |
| 20260902192957 | 35 | 196 | 8.0 | 11.3 | 0.00 | 0.00 | 0.00 | 47 | 1016.4 |
| 20260902191429 | 35 | 210 | 6.4 | 14.5 | 0.00 | 0.00 | 0.00 | 51 | 1016.5 |
| 20260902191003 | 35 | 235 | 3.2 | 9.7 | 0.00 | 0.00 | 0.00 | 50 | 1016.6 |
| 20260902190436 | 35 | 215 | 6.4 | 9.7 | 0.00 | 0.00 | 0.00 | 48 | 1016.7 |
| 20260902184957 | 35 | 210 | 8.0 | 12.9 | 0.00 | 0.00 | 0.00 | 50 | 1016.8 |
| 20260902184429 | 35 | 257 | 6.4 | 9.7 | 0.00 | 0.00 | 0.00 | 51 | 1016.9 |
| 20260902182942 | 34 | 241 | 6.4 | 11.3 | 0.00 | 0.00 | 0.00 | 52 | 1016.9 |
| 20260902182415 | 34 | 235 | 3.2 | 6.4 | 0.00 | 0.00 | 0.00 | 55 | 1017.0 |
| 20260902181948 | 33 | 270 | 4.8 | 11.3 | 0.00 | 0.00 | 0.00 | 55 | 1016.9 |
| 20260902181421 | 33 | 228 | 4.8 | 11.3 | 0.00 | 0.00 | 0.00 | 56 | 1016.9 |
| 20260902180954 | 33 | 241 | 8.0 | 11.3 | 0.00 | 0.00 | 0.00 | 57 | 1016.9 |
| 20260902180426 | 33 | 251 | 3.2 | 12.9 | 0.00 | 0.00 | 0.00 | 56 | 1017.0 |
| 20260902175938 | 33 | 241 | 8.0 | 12.9 | 0.00 | 0.00 | 0.00 | 55 | 1017.1 |
| 20260902174934 | 33 | 256 | 9.7 | 12.9 | 0.00 | 0.00 | 0.00 | 55 | 1017.0 |
| 20260902174407 | 33 | 239 | 12.9 | 12.9 | 0.00 | 0.00 | 0.00 | 55 | 1017.1 |
| 20260902173940 | 33 | 246 | 6.4 | 14.5 | 0.00 | 0.00 | 0.00 | 56 | 1017.2 |
| 20260902173412 | 33 | 232 | 9.7 | 14.5 | 0.00 | 0.00 | 0.00 | 55 | 1017.3 |
| 20260902171456 | 33 | 218 | 3.2 | 11.3 | 0.00 | 0.00 | 0.00 | 59 | 1017.4 |
| 20260902170913 | 33 | 218 | 4.8 | 9.7 | 0.00 | 0.00 | 0.00 | 59 | 1017.4 |
| 20260902165416 | 33 | 239 | 6.4 | 16.1 | 0.00 | 0.00 | 0.00 | 61 | 1017.5 |
| 20260902164949 | 33 | 205 | 3.2 | 16.1 | 0.00 | 0.00 | 0.00 | 62 | 1017.5 |
| 20260902164422 | 33 | 235 | 4.8 | 9.7 | 0.00 | 0.00 | 0.00 | 61 | 1017.6 |
| 20260902163432 | 32 | 212 | 8.0 | 9.7 | 0.00 | 0.00 | 0.00 | 62 | 1017.9 |
| 20260902163006 | 32 | 299 | 6.4 | 11.3 | 0.00 | 0.00 | 0.00 | 59 | 1017.9 |
| 20260902162422 | 32 | 184 | 9.7 | 11.3 | 0.00 | 0.00 | 0.00 | 62 | 1017.8 |
| 20260902161956 | 32 | 266 | 3.2 | 11.3 | 0.00 | 0.00 | 0.00 | 62 | 1017.9 |
| 20260902161429 | 32 | 229 | 6.4 | 9.7 | 0.00 | 0.00 | 0.00 | 62 | 1018.0 |
| 20260902161003 | 32 | 262 | 4.8 | 11.3 | 0.00 | 0.00 | 0.00 | 63 | 1018.0 |
| 20260902155929 | 32 | 200 | 4.8 | 9.7 | 0.00 | 0.00 | 0.00 | 64 | 1018.2 |
| 20260902154926 | 31 | 259 | 4.8 | 9.7 | 0.00 | 0.00 | 0.00 | 64 | 1018.2 |
| 20260902154500 | 31 | 200 | 6.4 | 9.7 | 0.00 | 0.00 | 0.00 | 66 | 1018.2 |
| 20260902153933 | 31 | 220 | 6.4 | 9.7 | 0.00 | 0.00 | 0.00 | 67 | 1018.2 |
| 20260902152921 | 31 | 193 | 1.6 | 9.7 | 0.00 | 0.00 | 0.00 | 68 | 1018.2 |
| 20260902152454 | 31 | 241 | 4.8 | 9.7 | 0.00 | 0.00 | 0.00 | 68 | 1018.2 |
| 20260902151927 | 31 | 280 | 3.2 | 8.0 | 0.00 | 0.00 | 0.00 | 69 | 1018.2 |
| 20260902150439 | 30 | 230 | 3.2 | 8.0 | 0.00 | 0.00 | 0.00 | 69 | 1018.3 |
| 20260902145909 | 30 | 221 | 6.4 | 8.0 | 0.00 | 0.00 | 0.00 | 72 | 1018.2 |
| 20260902145443 | 30 | 228 | 1.6 | 4.8 | 0.00 | 0.00 | 0.00 | 71 | 1018.2 |
| 20260902144431 | 29 | 220 | 1.6 | 4.8 | 0.00 | 0.00 | 0.00 | 73 | 1018.2 |
| 20260902143441 | 28 | 260 | 6.4 | 12.9 | 0.00 | 0.00 | 0.00 | 75 | 1018.2 |
| 20260902142438 | 28 | 201 | 4.8 | 8.0 | 0.00 | 0.00 | 0.00 | 77 | 1018.2 |
| 20260902141911 | 27 | 225 | 4.8 | 11.3 | 0.00 | 0.00 | 0.00 | 77 | 1018.2 |
| 20260902141445 | 27 | 253 | 1.6 | 11.3 | 0.00 | 0.00 | 0.00 | 78 | 1018.3 |
| 20260902140435 | 27 | 253 | 1.6 | 4.8 | 0.00 | 0.00 | 0.00 | 80 | 1018.2 |
| 20260902135945 | 27 | 182 | 4.8 | 8.0 | 0.00 | 0.00 | 0.00 | 80 | 1018.2 |
| 20260902135418 | 26 | 247 | 4.8 | 8.0 | 0.00 | 0.00 | 0.00 | 82 | 1018.2 |
| 20260902134952 | 26 | 257 | 3.2 | 6.4 | 0.00 | 0.00 | 0.00 | 82 | 1018.2 |
| 20260902133420 | 25 | 206 | 1.6 | 6.4 | 0.00 | 0.00 | 0.00 | 85 | 1018.2 |
| 20260902130940 | 25 | 217 | 4.8 | 6.4 | 0.00 | 0.00 | 0.00 | 87 | 1018.3 |
| 20260902124920 | 24 | 215 | 4.8 | 4.8 | 0.00 | 0.00 | 0.00 | 89 | 1018.2 |
| 20260902124454 | 23 | 214 | 3.2 | 4.8 | 0.00 | 0.00 | 0.00 | 90 | 1018.3 |
| 20260902123926 | 23 | 204 | 1.6 | 3.2 | 0.00 | 0.00 | 0.00 | 91 | 1018.2 |
| 20260902121910 | 22 | 204 | 0.0 | 0.0 | 0.00 | 0.00 | 0.00 | 91 | 1017.9 |
| 20260902121444 | 22 | 204 | 0.0 | 0.0 | 0.00 | 0.00 | 0.00 | 91 | 1017.8 |
| 20260902120917 | 22 | 204 | 0.0 | 0.0 | 0.00 | 0.00 | 0.00 | 91 | 1017.8 |
| 20260902120450 | 22 | 204 | 0.0 | 0.0 | 0.00 | 0.00 | 0.00 | 91 | 1017.8 |
| 20260902115920 | 22 | 204 | 0.0 | 0.0 | 0.00 | 0.00 | 0.00 | 91 | 1017.6 |
| 20260902115454 | 22 | 204 | 0.0 | 0.0 | 0.00 | 0.00 | 0.00 | 91 | 1017.6 |
| 20260902114927 | 22 | 204 | 0.0 | 0.0 | 0.00 | 0.00 | 0.00 | 91 | 1017.5 |
| 20260902113924 | 22 | 204 | 0.0 | 0.0 | 0.00 | 0.00 | 0.00 | 91 | 1017.5 |
| 20260902113458 | 22 | 204 | 0.0 | 0.0 | 0.00 | 0.00 | 0.00 | 91 | 1017.5 |
| 20260902112931 | 22 | 204 | 0.0 | 0.0 | 0.00 | 0.00 | 0.00 | 91 | 1017.4 |
| 20260902112504 | 22 | 204 | 0.0 | 0.0 | 0.00 | 0.00 | 0.00 | 91 | 1017.4 |
| 20260902111454 | 22 | 204 | 0.0 | 0.0 | 0.00 | 0.00 | 0.00 | 91 | 1017.3 |
| 20260902110927 | 22 | 204 | 0.0 | 0.0 | 0.00 | 0.00 | 0.00 | 91 | 1017.3 |
| 20260902110500 | 22 | 204 | 0.0 | 0.0 | 0.00 | 0.00 | 0.00 | 91 | 1017.2 |
| 20260902104505 | 22 | 204 | 0.0 | 0.0 | 0.00 | 0.00 | 0.00 | 91 | 1017.2 |
| 20260902103454 | 22 | 204 | 0.0 | 0.0 | 0.00 | 0.00 | 0.00 | 91 | 1017.2 |
| 20260902102927 | 22 | 204 | 0.0 | 0.0 | 0.00 | 0.00 | 0.00 | 91 | 1017.1 |
| 20260902102501 | 22 | 204 | 0.0 | 0.0 | 0.00 | 0.00 | 0.00 | 91 | 1017.1 |
| 20260902101934 | 22 | 204 | 0.0 | 0.0 | 0.00 | 0.00 | 0.00 | 91 | 1017.2 |
| 20260902100930 | 22 | 204 | 0.0 | 0.0 | 0.00 | 0.00 | 0.00 | 91 | 1017.1 |
| 20260902100503 | 22 | 204 | 0.0 | 0.0 | 0.00 | 0.00 | 0.00 | 91 | 1017.1 |
| 20260902095932 | 22 | 204 | 0.0 | 0.0 | 0.00 | 0.00 | 0.00 | 91 | 1017.2 |
| 20260902094921 | 22 | 204 | 0.0 | 0.0 | 0.00 | 0.00 | 0.00 | 90 | 1017.2 |
| 20260902094455 | 22 | 204 | 0.0 | 0.0 | 0.00 | 0.00 | 0.00 | 90 | 1017.1 |
| 20260902093928 | 22 | 204 | 0.0 | 0.0 | 0.00 | 0.00 | 0.00 | 90 | 1017.0 |
| 20260902093502 | 22 | 204 | 0.0 | 0.0 | 0.00 | 0.00 | 0.00 | 91 | 1017.1 |
| 20260902092919 | 22 | 204 | 0.0 | 0.0 | 0.00 | 0.00 | 0.00 | 91 | 1017.1 |
| 20260902092453 | 22 | 204 | 0.0 | 0.0 | 0.00 | 0.00 | 0.00 | 90 | 1017.2 |
| 20260902091926 | 22 | 204 | 0.0 | 0.0 | 0.00 | 0.00 | 0.00 | 90 | 1017.1 |
| 20260902091500 | 22 | 204 | 0.0 | 0.0 | 0.00 | 0.00 | 0.00 | 91 | 1017.1 |
| 20260902090933 | 22 | 204 | 0.0 | 0.0 | 0.00 | 0.00 | 0.00 | 90 | 1017.0 |
| 20260902085959 | 23 | 204 | 0.0 | 0.0 | 0.00 | 0.00 | 0.00 | 90 | 1016.9 |
| 20260902085432 | 23 | 204 | 0.0 | 0.0 | 0.00 | 0.00 | 0.00 | 90 | 1016.8 |
| 20260902085007 | 23 | 204 | 0.0 | 0.0 | 0.00 | 0.00 | 0.00 | 90 | 1016.8 |
| 20260902084423 | 23 | 204 | 0.0 | 0.0 | 0.00 | 0.00 | 0.00 | 91 | 1016.7 |
| 20260902083957 | 23 | 204 | 0.0 | 0.0 | 0.00 | 0.00 | 0.00 | 91 | 1016.7 |
| 20260902082945 | 23 | 204 | 0.0 | 0.0 | 0.00 | 0.00 | 0.00 | 91 | 1016.6 |
| 20260902081935 | 23 | 204 | 0.0 | 0.0 | 0.00 | 0.00 | 0.00 | 91 | 1016.6 |
| 20260902080931 | 23 | 204 | 0.0 | 0.0 | 0.00 | 0.00 | 0.00 | 91 | 1016.5 |
| 20260902075915 | 23 | 204 | 0.0 | 0.0 | 0.00 | 0.00 | 0.00 | 90 | 1016.3 |
| 20260902075449 | 23 | 204 | 0.0 | 0.0 | 0.00 | 0.00 | 0.00 | 90 | 1016.2 |
| 20260902074921 | 23 | 204 | 0.0 | 0.0 | 0.00 | 0.00 | 0.00 | 90 | 1016.2 |
| 20260902074455 | 23 | 204 | 0.0 | 0.0 | 0.00 | 0.00 | 0.00 | 90 | 1016.2 |
| 20260902072927 | 23 | 204 | 0.0 | 0.0 | 0.00 | 0.00 | 0.00 | 90 | 1016.3 |
| 20260902071940 | 23 | 204 | 0.0 | 0.0 | 0.00 | 0.00 | 0.00 | 90 | 1016.3 |
| 20260902071412 | 23 | 204 | 0.0 | 0.0 | 0.00 | 0.00 | 0.00 | 90 | 1016.3 |
| 20260902070946 | 23 | 204 | 0.0 | 0.0 | 0.00 | 0.00 | 0.00 | 90 | 1016.3 |
| 20260902070418 | 23 | 204 | 0.0 | 0.0 | 0.00 | 0.00 | 0.00 | 90 | 1016.4 |
| 20260902065929 | 23 | 204 | 0.0 | 0.0 | 0.00 | 0.00 | 0.00 | 90 | 1016.4 |
| 20260902064925 | 23 | 204 | 0.0 | 0.0 | 0.00 | 0.00 | 0.00 | 89 | 1016.4 |
| 20260902064459 | 23 | 204 | 0.0 | 0.0 | 0.00 | 0.00 | 0.00 | 89 | 1016.4 |
| 20260902063932 | 23 | 204 | 0.0 | 0.0 | 0.00 | 0.00 | 0.00 | 89 | 1016.4 |
| 20260902063506 | 23 | 204 | 0.0 | 0.0 | 0.00 | 0.00 | 0.00 | 89 | 1016.3 |
| 20260902062957 | 23 | 204 | 0.0 | 0.0 | 0.00 | 0.00 | 0.00 | 89 | 1016.5 |
| 20260902061430 | 23 | 204 | 0.0 | 0.0 | 0.00 | 0.00 | 0.00 | 89 | 1016.4 |
| 20260902061003 | 23 | 204 | 0.0 | 0.0 | 0.00 | 0.00 | 0.00 | 89 | 1016.4 |
| 20260902060436 | 23 | 204 | 0.0 | 0.0 | 0.00 | 0.00 | 0.00 | 89 | 1016.4 |
| 20260902055924 | 23 | 204 | 0.0 | 0.0 | 0.00 | 0.00 | 0.00 | 89 | 1016.4 |
| 20260902055411 | 23 | 204 | 0.0 | 0.0 | 0.00 | 0.00 | 0.00 | 88 | 1016.5 |
| 20260902054919 | 23 | 204 | 0.0 | 0.0 | 0.00 | 0.00 | 0.00 | 88 | 1016.5 |
| 20260902054407 | 24 | 204 | 0.0 | 0.0 | 0.00 | 0.00 | 0.00 | 88 | 1016.4 |
| 20260902053915 | 24 | 204 | 0.0 | 0.0 | 0.00 | 0.00 | 0.00 | 88 | 1016.5 |
| 20260902053422 | 24 | 204 | 0.0 | 0.0 | 0.00 | 0.00 | 0.00 | 88 | 1016.5 |
| 20260902051914 | 24 | 204 | 0.0 | 0.0 | 0.00 | 0.00 | 0.00 | 87 | 1016.5 |
| 20260902051422 | 24 | 204 | 0.0 | 0.0 | 0.00 | 0.00 | 0.00 | 87 | 1016.4 |
| 20260902050421 | 24 | 204 | 0.0 | 0.0 | 0.00 | 0.00 | 0.00 | 87 | 1016.5 |
| 20260902045924 | 24 | 204 | 0.0 | 0.0 | 0.00 | 0.00 | 0.00 | 87 | 1016.5 |
| 20260902045412 | 24 | 204 | 0.0 | 0.0 | 0.00 | 0.00 | 0.00 | 87 | 1016.5 |
| 20260902044920 | 24 | 204 | 0.0 | 0.0 | 0.00 | 0.00 | 0.00 | 86 | 1016.5 |
| 20260902043412 | 25 | 204 | 0.0 | 0.0 | 0.00 | 0.00 | 0.00 | 85 | 1016.4 |
| 20260902042921 | 25 | 204 | 0.0 | 0.0 | 0.00 | 0.00 | 0.00 | 85 | 1016.4 |
| 20260902041918 | 25 | 204 | 0.0 | 0.0 | 0.00 | 0.00 | 0.00 | 85 | 1016.5 |
| 20260902041407 | 25 | 204 | 0.0 | 0.0 | 0.00 | 0.00 | 0.00 | 84 | 1016.5 |
| 20260902035954 | 25 | 204 | 0.0 | 0.0 | 0.00 | 0.00 | 0.00 | 84 | 1016.5 |
| 20260902034943 | 25 | 204 | 0.0 | 0.0 | 0.00 | 0.00 | 0.00 | 84 | 1016.5 |
| 20260902033941 | 25 | 204 | 0.0 | 0.0 | 0.00 | 0.00 | 0.00 | 83 | 1016.5 |
| 20260902032930 | 25 | 204 | 0.0 | 0.0 | 0.00 | 0.00 | 0.00 | 83 | 1016.5 |
| 20260902032504 | 25 | 203 | 0.0 | 0.0 | 0.00 | 0.00 | 0.00 | 82 | 1016.4 |
| 20260902031937 | 25 | 203 | 0.0 | 0.0 | 0.00 | 0.00 | 0.00 | 82 | 1016.4 |
| 20260902031410 | 25 | 203 | 0.0 | 0.0 | 0.00 | 0.00 | 0.00 | 83 | 1016.4 |
| 20260902030944 | 25 | 203 | 0.0 | 0.0 | 0.00 | 0.00 | 0.00 | 82 | 1016.4 |
| 20260902030459 | 25 | 203 | 0.0 | 0.0 | 0.00 | 0.00 | 0.00 | 83 | 1016.4 |
| 20260902025954 | 25 | 203 | 0.0 | 0.0 | 0.00 | 0.00 | 0.00 | 83 | 1016.5 |
| 20260902025427 | 26 | 203 | 0.0 | 0.0 | 0.00 | 0.00 | 0.00 | 82 | 1016.5 |
| 20260902024439 | 26 | 203 | 0.0 | 0.0 | 0.00 | 0.00 | 0.00 | 82 | 1016.6 |
| 20260902023910 | 26 | 203 | 0.0 | 0.0 | 0.00 | 0.00 | 0.00 | 82 | 1016.5 |
| 20260902023443 | 26 | 203 | 0.0 | 0.0 | 0.00 | 0.00 | 0.00 | 81 | 1016.6 |
| 20260902022439 | 26 | 203 | 0.0 | 0.0 | 0.00 | 0.00 | 0.00 | 81 | 1016.5 |
| 20260902021425 | 26 | 203 | 0.0 | 0.0 | 0.00 | 0.00 | 0.00 | 80 | 1016.5 |
| 20260902020956 | 26 | 203 | 0.0 | 0.0 | 0.00 | 0.00 | 0.00 | 80 | 1016.5 |
| 20260902020427 | 26 | 203 | 0.0 | 0.0 | 0.00 | 0.00 | 0.00 | 80 | 1016.5 |
| 20260902015938 | 26 | 203 | 0.0 | 0.0 | 0.00 | 0.00 | 0.00 | 79 | 1016.4 |
| 20260902014927 | 27 | 203 | 0.0 | 0.0 | 0.00 | 0.00 | 0.00 | 79 | 1016.4 |
| 20260902014501 | 27 | 203 | 0.0 | 0.0 | 0.00 | 0.00 | 0.00 | 79 | 1016.4 |
| 20260902013455 | 27 | 203 | 0.0 | 0.0 | 0.00 | 0.00 | 0.00 | 78 | 1016.3 |
| 20260902012927 | 27 | 203 | 0.0 | 0.0 | 0.00 | 0.00 | 0.00 | 78 | 1016.3 |
| 20260902011940 | 27 | 203 | 0.0 | 0.0 | 0.00 | 0.00 | 0.00 | 78 | 1016.1 |
| 20260902010927 | 27 | 203 | 0.0 | 0.0 | 0.00 | 0.00 | 0.00 | 77 | 1016.1 |
| 20260902010501 | 27 | 203 | 0.0 | 0.0 | 0.00 | 0.00 | 0.00 | 77 | 1016.1 |
| 20260902005412 | 27 | 203 | 0.0 | 0.0 | 0.00 | 0.00 | 0.00 | 76 | 1015.9 |
| 20260902004945 | 28 | 203 | 0.0 | 0.0 | 0.00 | 0.00 | 0.00 | 76 | 1015.9 |
| 20260902004418 | 28 | 203 | 0.0 | 0.0 | 0.00 | 0.00 | 0.00 | 75 | 1016.0 |
| 20260902003952 | 28 | 203 | 0.0 | 0.0 | 0.00 | 0.00 | 0.00 | 74 | 1016.0 |
| 20260902003425 | 28 | 203 | 0.0 | 0.0 | 0.00 | 0.00 | 0.00 | 73 | 1016.0 |
| 20260902002958 | 28 | 203 | 0.0 | 0.0 | 0.00 | 0.00 | 0.00 | 72 | 1016.0 |
| 20260902002430 | 29 | 203 | 0.0 | 0.0 | 0.00 | 0.00 | 0.00 | 71 | 1016.0 |
| 20260902001427 | 30 | 203 | 0.0 | 0.0 | 0.00 | 0.00 | 0.00 | 68 | 1016.0 |
| 20260902001001 | 30 | 203 | 0.0 | 0.0 | 0.00 | 0.00 | 0.00 | 67 | 1016.0 |
| 20260902000433 | 30 | 203 | 0.0 | 0.0 | 0.00 | 0.00 | 0.00 | 66 | 1016.1 |
| 20260902000004 | 31 | 203 | 0.0 | 0.0 | 0.00 | 0.00 | 0.00 | 65 | 1016.0 |